Weather History for KPIR - August, 2013

Change the Weather History Date:

Wednesday, August 28, 2013

  Actual Average Record
Temperature  
Mean Temperature 77 °F 71 °F  
Max Temperature 86 °F 85 °F 106 °F (1959)
Min Temperature 67 °F 57 °F 41 °F (1986)
Degree Days  
Heating Degree Days 0 1  
Month to date heating degree days 0 8  
Since 1 June heating degree days 69 67  
Since 1 July heating degree days 9 14  
Cooling Degree Days 12 7  
Month to date cooling degree days 239 264  
Year to date cooling degree days 646 757  
Since 1 June cooling degree days 624 725  
Growing Degree Days 25 (Base 50)    
Moisture  
Dew Point 66 °F    
Average Humidity 71    
Maximum Humidity 87    
Minimum Humidity 55    
Precipitation  
Precipitation 0.05 in 0.05 in 0.73 in (2014)
Month to date precipitation 2.52 1.65  
Year to date precipitation 16.92 15.03  
Sea Level Pressure  
Sea Level Pressure 29.89 in    
Wind  
Wind Speed 10 mph (ENE)    
Max Wind Speed 30 mph    
Max Gust Speed 38 mph    
Visibility 10 miles    
Events Rain , Thunderstorm    
T = Trace of Precipitation, MM = Missing Value Source: NWS Daily Summary

Daily Weather History Graph

Daily Weather History Graph

Search for Another Location

Airport or City:

Trip Planner

Search our weather history database for the weather conditions in past years. The results will help you decide how hot, cold, wet, or windy it might be!

Date:

Astronomy

Aug. 28, 2013 Rise Set
Actual Time 6:59 AM CDT 8:24 PM CDT
Civil Twilight 6:29 AM CDT 8:54 PM CDT
Nautical Twilight 5:52 AM CDT 9:30 PM CDT
Astronomical Twilight 5:13 AM CDT 10:09 PM CDT
Moon 12:02 AM CDT (8/28) 3:09 PM CDT (8/28)
Length of Visible Light 14h 24m
Length of Day
13h 24m
Waning Gibbous, 47% of the Moon is Illuminated
Aug 28
Waning Gibbous
Sep 5
New
Sep 12
First Quarter
Sep 19
Full
Sep 26
Last Quarter

Hourly Weather History & Observations

Time (CDT) Temp. Heat Index Dew Point Humidity Pressure Visibility Wind Dir Wind Speed Gust Speed Precip Events Conditions
12:53 AM 78.1 °F - 70.0 °F 76% 29.83 in 10.0 mi ENE 10.4 mph - N/A   Clear
1:53 AM 78.1 °F - 72.0 °F 81% 29.83 in 10.0 mi NE 10.4 mph - N/A   Clear
2:53 AM 77.0 °F - 72.0 °F 84% 29.81 in 10.0 mi East 10.4 mph - N/A   Clear
3:53 AM 75.9 °F - 72.0 °F 87% 29.81 in 9.0 mi East 6.9 mph - N/A   Clear
4:32 AM 75.2 °F - 71.6 °F 89% 29.89 in 10.0 mi NE 13.8 mph 25.3 mph N/A Thunderstorm Partly Cloudy
4:42 AM 77.0 °F - 71.6 °F 83% 29.89 in 10.0 mi North 21.9 mph 27.6 mph N/A Thunderstorm Scattered Clouds
4:53 AM 75.9 °F - 70.0 °F 82% 29.83 in 10.0 mi NE 24.2 mph 31.1 mph N/A   Partly Cloudy
5:53 AM 70.0 °F - 64.0 °F 81% 29.88 in 10.0 mi NE 18.4 mph 27.6 mph N/A   Clear
6:13 AM 71.6 °F - 62.6 °F 73% 29.94 in 10.0 mi NE 17.3 mph 27.6 mph N/A Thunderstorm Thunderstorm
6:53 AM 70.0 °F - 62.1 °F 76% 29.86 in 10.0 mi NE 15.0 mph 24.2 mph 0.00 in Thunderstorm Overcast
7:00 AM 69.8 °F - 62.6 °F 78% 29.92 in 10.0 mi NE 12.7 mph 21.9 mph N/A   Mostly Cloudy
7:17 AM 69.8 °F - 62.6 °F 78% 29.92 in 10.0 mi ENE 17.3 mph - N/A Thunderstorm Partly Cloudy
7:53 AM 68.0 °F - 63.0 °F 84% 29.88 in 10.0 mi East 19.6 mph 27.6 mph 0.02 in Rain , Thunderstorm Light Thunderstorms and Rain
8:21 AM 68.0 °F - 64.4 °F 88% 29.94 in 10.0 mi ESE 13.8 mph - 0.00 in Thunderstorm Clear
8:53 AM 66.9 °F - 63.0 °F 87% 29.91 in 7.0 mi East 10.4 mph 19.6 mph 0.03 in Rain , Thunderstorm Light Thunderstorms and Rain
9:11 AM 68.0 °F - 62.6 °F 83% 29.93 in 10.0 mi ENE 13.8 mph 24.2 mph 0.00 in   Mostly Cloudy
9:20 AM 69.8 °F - 62.6 °F 78% 29.95 in 10.0 mi ENE 12.7 mph - 0.00 in Thunderstorm Mostly Cloudy
9:53 AM 69.1 °F - 63.0 °F 81% 29.90 in 10.0 mi ESE 11.5 mph - 0.00 in   Partly Cloudy
10:53 AM 73.0 °F - 64.0 °F 73% 29.92 in 10.0 mi Calm Calm - N/A   Clear
11:53 AM 75.0 °F - 64.9 °F 71% 29.91 in 10.0 mi NNE 6.9 mph - N/A   Partly Cloudy
12:53 PM 75.9 °F - 64.9 °F 69% 29.95 in 10.0 mi WNW 9.2 mph - N/A   Partly Cloudy
1:53 PM 75.0 °F - 64.9 °F 71% 29.95 in 10.0 mi NW 8.1 mph - N/A   Clear
2:53 PM 78.1 °F - 64.9 °F 64% 29.92 in 10.0 mi North 5.8 mph - N/A   Clear
3:53 PM 82.0 °F 83.4 °F 64.0 °F 54% 29.88 in 10.0 mi NE 10.4 mph - N/A   Clear
4:53 PM 82.9 °F 84.6 °F 64.9 °F 54% 29.87 in 10.0 mi ENE 11.5 mph - N/A   Clear
5:53 PM 84.9 °F 87.1 °F 66.0 °F 53% 29.89 in 10.0 mi ESE 6.9 mph - N/A   Clear
6:53 PM 84.9 °F 87.6 °F 66.9 °F 55% 29.88 in 10.0 mi East 6.9 mph - N/A   Clear
7:53 PM 82.0 °F 85.5 °F 69.1 °F 65% 29.88 in 10.0 mi East 8.1 mph - N/A   Clear
8:53 PM 77.0 °F - 69.1 °F 76% 29.87 in 10.0 mi ENE 9.2 mph - N/A   Clear
9:53 PM 75.0 °F - 68.0 °F 79% 29.88 in 10.0 mi East 6.9 mph - N/A   Clear
10:53 PM 73.0 °F - 69.1 °F 87% 29.87 in 10.0 mi ENE 5.8 mph - N/A   Clear
11:53 PM 73.0 °F - 69.1 °F 87% 29.88 in 10.0 mi ESE 6.9 mph - N/A   Clear